Hourly Weather Świdnik

Today, 8 July, Wednesday

Time Temperature Precipitation Wind Pressure Humidity
00:00 +10°C° 0 mm 3 mps 745 mmHg 90%
01:00 +10°C° 0 mm 2 mps 745 mmHg 91%
02:00 +9°C° 0 mm 2 mps 745 mmHg 90%
03:00 +9°C° 0 mm 2 mps 745 mmHg 90%
04:00 +9°C° 0 mm 2 mps 745 mmHg 90%
05:00 +9°C° 0 mm 3 mps 745 mmHg 90%
06:00 +11°C° 0 mm 3 mps 745 mmHg 86%
07:00 +12°C° 0 mm 3 mps 745 mmHg 81%
08:00 +14°C° 0 mm 3 mps 745 mmHg 77%
09:00 +16°C° 0.1 mm 3 mps 745 mmHg 73%
10:00 +17°C° 0.1 mm 4 mps 745 mmHg 69%
11:00 +19°C° 0.1 mm 4 mps 745 mmHg 65%
12:00 +18°C° 0.4 mm 4 mps 745 mmHg 68%
13:00 +17°C° 0.4 mm 5 mps 745 mmHg 71%
14:00 +17°C° 0.4 mm 5 mps 745 mmHg 74%
15:00 +17°C° 0.3 mm 5 mps 745 mmHg 73%
16:00 +17°C° 0.3 mm 5 mps 745 mmHg 73%
17:00 +17°C° 0.3 mm 5 mps 745 mmHg 72%
18:00 +17°C° 0 mm 4 mps 745 mmHg 76%
19:00 +16°C° 0 mm 3 mps 745 mmHg 79%
20:00 +14°C° 0 mm 3 mps 745 mmHg 83%
21:00 +14°C° 0.6 mm 3 mps 745 mmHg 86%
22:00 +13°C° 0.6 mm 3 mps 745 mmHg 90%
23:00 +13°C° 0.6 mm 3 mps 745 mmHg 94%

Tomorrow, 9 July, Thursday

Time Temperature Precipitation Wind Pressure Humidity
00:00 +12°C° 0.1 mm 3 mps 745 mmHg 95%
01:00 +12°C° 0.1 mm 3 mps 746 mmHg 95%
02:00 +11°C° 0.1 mm 3 mps 746 mmHg 96%
03:00 +12°C° 0 mm 2 mps 746 mmHg 96%
04:00 +12°C° 0 mm 2 mps 746 mmHg 97%
05:00 +10°C° 0 mm 2 mps 746 mmHg 97%
06:00 +12°C° 0 mm 2 mps 746 mmHg 94%
07:00 +13°C° 0 mm 3 mps 746 mmHg 91%
08:00 +14°C° 0 mm 3 mps 747 mmHg 88%
09:00 +16°C° 0.1 mm 3 mps 747 mmHg 83%
10:00 +18°C° 0.1 mm 3 mps 747 mmHg 78%
11:00 +19°C° 0.1 mm 3 mps 747 mmHg 73%
12:00 +19°C° 0.3 mm 3 mps 747 mmHg 72%
13:00 +19°C° 0.3 mm 3 mps 747 mmHg 71%
14:00 +20°C° 0.3 mm 3 mps 747 mmHg 70%
15:00 +20°C° 0.2 mm 3 mps 747 mmHg 72%
16:00 +19°C° 0.2 mm 3 mps 746 mmHg 74%
17:00 +19°C° 0.2 mm 3 mps 746 mmHg 76%
18:00 +19°C° 0 mm 3 mps 746 mmHg 79%
19:00 +18°C° 0 mm 2 mps 746 mmHg 82%
20:00 +17°C° 0 mm 2 mps 746 mmHg 85%
21:00 +17°C° 0 mm 2 mps 746 mmHg 86%
22:00 +16°C° 0 mm 2 mps 746 mmHg 87%
23:00 +15°C° 0 mm 2 mps 746 mmHg 88%

Day after tomorrow, 10 July, Friday

Time Temperature Precipitation Wind Pressure Humidity
00:00 +16°C° 0 mm 3 mps 746 mmHg 87%
01:00 +16°C° 0 mm 3 mps 746 mmHg 86%
02:00 +17°C° 0 mm 3 mps 745 mmHg 85%
03:00 +16°C° 0 mm 3 mps 745 mmHg 88%
04:00 +15°C° 0 mm 4 mps 745 mmHg 91%
05:00 +15°C° 0 mm 4 mps 745 mmHg 95%
06:00 +17°C° 0 mm 4 mps 745 mmHg 91%
07:00 +19°C° 0 mm 4 mps 745 mmHg 88%
08:00 +20°C° 0 mm 4 mps 745 mmHg 84%
09:00 +21°C° 0.1 mm 4 mps 745 mmHg 81%
10:00 +22°C° 0.1 mm 5 mps 744 mmHg 78%
11:00 +23°C° 0.1 mm 5 mps 744 mmHg 75%
12:00 +25°C° 0.4 mm 5 mps 744 mmHg 73%
13:00 +26°C° 0.4 mm 5 mps 744 mmHg 70%
14:00 +27°C° 0.4 mm 6 mps 744 mmHg 68%
15:00 +28°C° 0.2 mm 5 mps 744 mmHg 68%
16:00 +28°C° 0.2 mm 4 mps 743 mmHg 69%
17:00 +28°C° 0.2 mm 4 mps 743 mmHg 69%
18:00 +27°C° 0.1 mm 4 mps 743 mmHg 73%
19:00 +25°C° 0.1 mm 4 mps 743 mmHg 78%
20:00 +23°C° 0.1 mm 4 mps 743 mmHg 82%
21:00 +22°C° 0 mm 4 mps 743 mmHg 83%
22:00 +22°C° 0 mm 4 mps 743 mmHg 84%
23:00 +21°C° 0 mm 5 mps 743 mmHg 86%

11 July, Saturday

Time Temperature Precipitation Wind Pressure Humidity
00:00 +20°C° 0 mm 4 mps 743 mmHg 86%
01:00 +20°C° 0 mm 4 mps 743 mmHg 87%
02:00 +19°C° 0 mm 4 mps 743 mmHg 88%
03:00 +19°C° 0 mm 3 mps 743 mmHg 89%
04:00 +18°C° 0 mm 3 mps 743 mmHg 90%
05:00 +18°C° 0 mm 2 mps 744 mmHg 91%
06:00 +19°C° 0 mm 2 mps 744 mmHg 88%
07:00 +21°C° 0 mm 2 mps 744 mmHg 84%
08:00 +23°C° 0 mm 1 mps 744 mmHg 81%
09:00 +24°C° 0 mm 2 mps 744 mmHg 81%
10:00 +24°C° 0 mm 2 mps 745 mmHg 80%
11:00 +25°C° 0 mm 3 mps 745 mmHg 80%
12:00 +25°C° 0.4 mm 3 mps 745 mmHg 81%
13:00 +23°C° 0.4 mm 4 mps 745 mmHg 81%
14:00 +23°C° 0.4 mm 4 mps 745 mmHg 82%
15:00 +21°C° 0.6 mm 5 mps 745 mmHg 85%
16:00 +19°C° 0.6 mm 6 mps 746 mmHg 88%
17:00 +16°C° 0.6 mm 7 mps 746 mmHg 92%
18:00 +15°C° 0.4 mm 6 mps 746 mmHg 93%
19:00 +15°C° 0.4 mm 5 mps 747 mmHg 94%
20:00 +14°C° 0.4 mm 4 mps 747 mmHg 95%
21:00 +14°C° 0.2 mm 4 mps 748 mmHg 95%
22:00 +14°C° 0.2 mm 3 mps 748 mmHg 95%
23:00 +13°C° 0.2 mm 3 mps 748 mmHg 96%

12 July, Sunday

Time Temperature Precipitation Wind Pressure Humidity
00:00 +13°C° 0.7 mm 3 mps 748 mmHg 96%
01:00 +13°C° 0.7 mm 3 mps 748 mmHg 96%
02:00 +13°C° 0.7 mm 3 mps 748 mmHg 97%
03:00 +13°C° 1.5 mm 3 mps 749 mmHg 96%
04:00 +14°C° 1.5 mm 2 mps 749 mmHg 95%
05:00 +13°C° 1.5 mm 2 mps 749 mmHg 95%
06:00 +14°C° 0.2 mm 2 mps 749 mmHg 93%
07:00 +14°C° 0.2 mm 2 mps 749 mmHg 91%
08:00 +15°C° 0.2 mm 2 mps 750 mmHg 90%
09:00 +15°C° 0.4 mm 2 mps 750 mmHg 87%
10:00 +16°C° 0.4 mm 2 mps 750 mmHg 83%
11:00 +18°C° 0.4 mm 1 mps 750 mmHg 80%
12:00 +18°C° 0.3 mm 2 mps 750 mmHg 77%
13:00 +18°C° 0.3 mm 3 mps 750 mmHg 75%
14:00 +19°C° 0.3 mm 3 mps 750 mmHg 72%
15:00 +19°C° 0.2 mm 3 mps 750 mmHg 71%
16:00 +19°C° 0.2 mm 3 mps 750 mmHg 70%
17:00 +19°C° 0.2 mm 3 mps 749 mmHg 69%
18:00 +18°C° 0 mm 3 mps 749 mmHg 73%
19:00 +17°C° 0 mm 3 mps 749 mmHg 77%
20:00 +16°C° 0 mm 2 mps 749 mmHg 81%
21:00 +15°C° 0 mm 2 mps 750 mmHg 83%
22:00 +14°C° 0 mm 2 mps 750 mmHg 84%
23:00 +13°C° 0 mm 2 mps 750 mmHg 85%

13 July, Monday

Time Temperature Precipitation Wind Pressure Humidity
00:00 +12°C° 0 mm 2 mps 750 mmHg 86%
01:00 +12°C° 0 mm 2 mps 750 mmHg 87%
02:00 +10°C° 0 mm 2 mps 750 mmHg 88%
03:00 +10°C° 0 mm 2 mps 750 mmHg 90%
04:00 +10°C° 0 mm 2 mps 750 mmHg 91%
05:00 +9°C° 0 mm 2 mps 750 mmHg 92%
06:00 +11°C° 0 mm 3 mps 750 mmHg 88%
07:00 +12°C° 0 mm 3 mps 750 mmHg 84%
08:00 +14°C° 0 mm 3 mps 750 mmHg 81%
09:00 +15°C° 0.1 mm 4 mps 750 mmHg 76%
10:00 +17°C° 0.1 mm 4 mps 750 mmHg 71%
11:00 +18°C° 0.1 mm 4 mps 750 mmHg 67%
12:00 +19°C° 0.2 mm 4 mps 749 mmHg 66%
13:00 +19°C° 0.2 mm 5 mps 749 mmHg 66%
14:00 +20°C° 0.2 mm 5 mps 749 mmHg 65%
15:00 +19°C° 0.2 mm 5 mps 748 mmHg 67%
16:00 +19°C° 0.2 mm 5 mps 748 mmHg 68%
17:00 +19°C° 0.2 mm 4 mps 748 mmHg 70%
18:00 +18°C° 0.1 mm 4 mps 748 mmHg 75%
19:00 +17°C° 0.1 mm 3 mps 748 mmHg 79%
20:00 +16°C° 0.1 mm 2 mps 747 mmHg 84%
21:00 +15°C° 0 mm 2 mps 748 mmHg 87%
22:00 +14°C° 0 mm 2 mps 748 mmHg 89%
23:00 +13°C° 0 mm 2 mps 748 mmHg 91%
Show more